MDT,Max TemperatureF,Mean TemperatureF,Min TemperatureF,Max Dew PointF,MeanDew PointF,Min DewpointF,Max Humidity, Mean Humidity, Min Humidity, Max Sea Level PressureIn, Mean Sea Level PressureIn, Min Sea Level PressureIn, Max VisibilityMiles, Mean VisibilityMiles, Min VisibilityMiles, Max Wind SpeedMPH, Mean Wind SpeedMPH, Max Gust SpeedMPH,PrecipitationIn, CloudCover, Events, WindDirDegrees
2013-5-1,53,42,30,32,16,-17,93,45,8,30.37,30.16,29.97,10,10,3,21,9,31,0.00,,Snow,283
2013-5-2,46,34,23,12,6,-9,63,33,14,30.50,30.46,30.37,10,10,10,20,6,29,0.00,,,281
2013-5-3,57,42,28,12,5,-8,51,25,9,30.46,30.27,30.14,10,10,10,15,4,24,0.00,,,223
2013-5-4,55,44,32,14,10,3,44,25,13,30.14,30.09,30.06,10,10,10,15,6,23,0.00,,,128
2013-5-5,53,48,42,28,18,9,57,32,20,30.20,30.16,30.10,10,10,10,23,8,34,0.00,,,152
2013-5-6,46,40,33,37,33,28,100,76,50,30.20,30.13,30.09,10,9,1,13,2,22,0.23,,Rain-Snow-Thunderstorm,138
2013-5-7,48,40,33,36,32,28,100,74,50,30.18,30.13,30.09,10,10,3,17,4,28,0.01,,Rain-Snow-Thunderstorm,135
2013-5-8,44,38,32,32,30,21,100,80,42,30.17,30.12,30.07,10,9,1,22,5,30,0.01,,Snow-Thunderstorm,150
2013-5-9,44,38,32,37,34,30,100,85,61,30.29,30.20,30.14,10,10,4,13,2,,0.03,,Rain-Snow-Thunderstorm,236
2013-5-10,55,44,32,34,30,23,100,67,33,30.44,30.32,30.27,10,10,5,20,4,29,0.01,,Rain-Thunderstorm,88
2013-5-11,59,46,33,36,27,19,87,57,23,30.52,30.48,30.44,10,10,7,10,4,20,0.03,,Rain,121
2013-5-12,60,48,37,34,29,23,81,50,25,30.51,30.47,30.41,10,10,10,9,4,,0.00,,,85
2013-5-13,68,54,41,37,31,25,65,47,20,30.51,30.46,30.41,10,10,10,13,5,24,0.00,,Rain-Thunderstorm,125
2013-5-14,68,55,42,36,32,23,66,46,18,30.40,30.32,30.26,10,10,10,15,5,25,0.00,,Rain-Thunderstorm,118
2013-5-15,64,54,44,39,27,7,66,40,13,30.28,30.21,30.13,10,10,7,16,6,26,0.01,3,Rain-Thunderstorm,150
2013-5-16,66,54,42,27,21,16,46,28,16,30.21,30.17,30.13,10,10,10,17,7,23,0.00,2,,173
2013-5-17,64,53,42,23,13,3,39,22,10,30.21,30.17,30.11,10,10,7,22,7,33,0.00,0,,176
2013-5-18,55,44,33,36,26,18,100,52,24,30.20,30.15,30.08,10,10,2,20,5,36,0.13,5,Rain-Snow-Thunderstorm,191
2013-5-19,50,42,33,34,29,19,100,70,30,30.13,30.09,30.05,10,10,10,18,3,29,0.00,4,Thunderstorm,261
2013-5-20,46,39,32,37,32,27,100,81,57,30.22,30.13,30.07,10,9,0,17,4,25,0.14,5,Fog-Rain-Thunderstorm,217
2013-5-21,57,44,32,36,29,21,100,59,25,30.23,30.18,30.12,10,10,1,14,3,23,0.00,1,,247
2013-5-22,64,52,41,32,22,12,66,33,14,30.14,30.10,30.06,10,10,10,20,7,39,0.00,2,,144
2013-5-23,68,60,51,21,15,9,30,18,11,30.20,30.14,30.10,10,10,7,30,11,48,0.00,0,,154
2013-5-24,66,55,44,19,13,9,34,19,11,30.28,30.25,30.20,10,10,10,24,6,36,0.00,0,,170
2013-5-25,68,56,44,19,12,5,30,18,10,30.29,30.25,30.20,10,10,10,20,4,31,0.00,0,,170
2013-5-26,66,55,44,21,14,7,34,20,10,30.27,30.23,30.18,10,10,10,16,5,28,0.00,0,,146
2013-5-27,64,53,42,21,13,9,37,21,12,30.22,30.15,30.08,10,10,10,15,6,25,0.00,0,,187
2013-5-28,60,51,42,34,19,12,66,30,15,30.12,29.99,29.90,10,10,10,21,7,36,0.00,3,,160
2013-5-29,51,43,35,37,31,23,100,67,33,30.04,29.94,29.91,10,10,2,20,6,33,0.11,5,Rain,253
2013-5-30,59,47,35,36,26,18,93,51,22,30.16,30.08,30.02,10,10,5,21,5,39,0.00,4,Rain-Snow,257
2013-5-31,55,46,37,27,17,5,65,33,13,30.32,30.21,30.14,10,10,10,23,5,36,0.00,2,,268